Regional Weather Roundup
Issued by NWS

Home | Current Version | Previous Version | Graphics & Text | Print | Product List | Glossary On
Versions: 1 2 3 4 5 6 7 8 9 10 11 12 13 14 15 16 17 18 19 20 21 22 23 24 25 26 27 28 29 30 31 32 33 34 35 36 37 38 39 40 41 42 43 44 45 46 47 48 49 50
000
ASUS43 KIND 191909
RWRIN

WEATHER ROUNDUP FOR INDIANA
NATIONAL WEATHER SERVICE INDIANAPOLIS IN
300 PM EDT SAT AUG 19 2017

NOTE: "FAIR" INDICATES FEW OR NO CLOUDS BELOW 12,000 FEET WITH NO
SIGNIFICANT WEATHER AND/OR OBSTRUCTIONS TO VISIBILITY.

* - STATION DOES NOT REPORT WEATHER SUCH AS PRECIPITATION OR FOG.

+ - STATION NOT QUALITY CONTROLLED BY THE NATIONAL WEATHER SERVICE.
    USE DATA WITH CAUTION...ESPECIALLY DEWPOINT AND RELATIVE
    HUMIDITY OBSERVATIONS.

INZ001>003-010>013-019-020-192000-
NORTHWEST INDIANA

CITY           SKY/WX    TMP DP  RH WIND       PRES   REMARKS
GARY /AIRPORT/ SUNNY     79  55  44 VRB5      29.98S
KNOX *+        SUNNY     77  61  57 NW6       29.97S
LA PORTE +     SUNNY     79  56  44 NW9       29.98S
MICHIGAN CITY+ SUNNY     77  59  53 N7        29.99R
MONTICELLO +   SUNNY     81  60  49 CALM      29.96S
RENSSELAER +   SUNNY     79  48  34 CALM      29.97S
VALPARAISO     SUNNY     82  61  48 VRB5      29.98R

$$

LMZ046-743>745-192000-
SOUTHERN LAKE MICHIGAN

STATION/POSITION TIME  TEMP    WIND        PRES    WAVE
                       AIR SEA DIR/SP/G            HT
                 (UTC) (F)     (DEG/KT/KT) (MB)    (FT)
BURNS HARBOR     1840   71     350/  4/  5 1015.9R
MICHIGAN CITY    1840   74     340/  5/  6   N/A
5NW MICH CITY    1900   72 76  320/  2/  6   N/A     1

$$

INZ004-005-014>016-021>024-192000-
NORTH CENTRAL INDIANA

CITY           SKY/WX    TMP DP  RH WIND       PRES   REMARKS
ELKHART        MOSUNNY   79  57  47 E6        29.96S
GOSHEN         MOSUNNY   80  57  45 N8        29.96S
LOGANSPORT +   SUNNY     79  59  50 CALM      29.98R
PERU/GRISSOM   SUNNY     80  61  53 N3        29.96S
ROCHESTER +    SUNNY    N/A N/A N/A NE5       29.97S
SOUTH BEND     SUNNY     81  55  40 N12       29.97R
WARSAW +       MOSUNNY   77  61  57 NE3       29.97S

$$

INZ006>009-017-018-025>027-192000-
NORTHEAST INDIANA

CITY           SKY/WX    TMP DP  RH WIND       PRES   REMARKS
AUBURN +       MOSUNNY   79  59  50 NW7       29.97S
FORT WAYNE     MOSUNNY   81  58  45 NW7       29.96F
HUNTINGTON +   SUNNY     80  58  48 N7        29.96S

$$

INZ028-029-035-036-043>045-051>053-192000-
WEST CENTRAL INDIANA

CITY           SKY/WX    TMP DP  RH WIND       PRES   REMARKS
GREENCASTLE +  PTSUNNY   82  68  61 CALM      29.96S
LAFAYETTE      SUNNY     82  60  47 CALM      29.95F
TERRE HAUTE    SUNNY     86  67  52 NE3       29.95S

$$

INZ030>032-037>040-046>048-054>057-064-065-192000-
CENTRAL INDIANA

CITY           SKY/WX    TMP DP  RH WIND       PRES   REMARKS
CP ATTERBURY + SUNNY     86  63  45 SW6       29.95F
COLUMBUS       MOSUNNY   84  59  42 W3        29.95S
FRANKFORT +    PTSUNNY   84  66  54 CALM      29.98F
GREENWOOD *+   MOSUNNY   84  65  52 W5        29.96S
INDIANAPOLIS   MOSUNNY   85  63  47 CALM      29.94F
-EAGLE CREEK   MOSUNNY   85  63  47 N6        29.94F
KOKOMO +       SUNNY     82  60  47 VRB6      29.98S
MARION +       SUNNY     79  59  50 NW3       29.98S
MT COMFORT *+  MOSUNNY   84  66  54 CALM      29.96S
SHELBYVILLE    MOSUNNY   86  66  51 SW5       29.95S
ZIONSVILLE +   SUNNY     81  66  60 N6        29.97S

$$

INZ033-034-041-042-049-050-058-059-192000-
EAST CENTRAL INDIANA

CITY           SKY/WX    TMP DP  RH WIND       PRES   REMARKS
MUNCIE         MOSUNNY   82  65  56 NW5       29.97S
RICHMOND +     MOSUNNY   81  68  65 W9        29.98S

$$

INZ060-061-067>069-081>083-085>088-192000-
SOUTHWEST INDIANA

CITY           SKY/WX    TMP DP  RH WIND       PRES   REMARKS
EVANSVILLE     SUNNY     86  64  47 S5        29.95F
WASHINGTON +   MOSUNNY   87  64  46 MISG      29.94F

$$

INZ062-063-066-070>080-084-089>092-192000-
SOUTH CENTRAL AND SOUTHEAST INDIANA

CITY           SKY/WX    TMP DP  RH WIND       PRES   REMARKS
BEDFORD +      PTSUNNY   88  64  45 W7        29.94S
BLOOMINGTON    MOSUNNY   88  65  46 NW6       29.95S
MADISON *+     MOSUNNY   88  63  42 SW7       29.97F
NORTH VERNON + MOSUNNY   84  66  54 NW8       29.96S
SEYMOUR +      MOSUNNY   90  64  43 CALM      29.94S

$$





USA.gov is the U.S. government's official web portal to all federal, state and local government web resources and services.